Weather History for KRNO - October, 2013

Change the Weather History Date:

Sunday, October 13, 2013

  Actual Average Record
Temperature  
Mean Temperature 47 °F 55 °F  
Max Temperature 55 °F 71 °F 87 °F (1971)
Min Temperature 39 °F 40 °F 22 °F (1942)
Degree Days  
Heating Degree Days 18 10  
Month to date heating degree days 156 104  
Since 1 July heating degree days 241 194  
Cooling Degree Days 0 0  
Month to date cooling degree days 0 4  
Year to date cooling degree days 1174 838  
Moisture  
Dew Point 33 °F    
Average Humidity 56    
Maximum Humidity 70    
Minimum Humidity 41    
Precipitation  
Precipitation T in 0.02 in 1.46 in (1962)
Month to date precipitation 0.01 0.21  
Year to date precipitation 3.07 5.25  
Snow  
Snow 0.00 in 0.00 in 0.80 in (1920)
Month to date snowfall 0.0 0.1  
Since 1 July snowfall T 0.2  
Since 1 September snowfall 0.0 0.2  
Snow Depth 0.00 in    
Sea Level Pressure  
Sea Level Pressure 30.05 in    
Wind  
Wind Speed 6 mph (North)    
Max Wind Speed 14 mph    
Max Gust Speed 18 mph    
Visibility 10 miles    
Events Rain    
T = Trace of Precipitation, MM = Missing Value Source: NWS Daily Summary

Daily Weather History Graph

Daily Weather History Graph

Search for Another Location

Airport or City:

Trip Planner

Search our weather history database for the weather conditions in past years. The results will help you decide how hot, cold, wet, or windy it might be!

Date:

Astronomy

Oct. 13, 2013 Rise Set
Actual Time 7:07 AM PDT 6:22 PM PDT
Civil Twilight 6:40 AM PDT 6:49 PM PDT
Nautical Twilight 6:09 AM PDT 7:20 PM PDT
Astronomical Twilight 5:37 AM PDT 7:51 PM PDT
Moon 3:15 PM PDT (10/13) 1:24 AM PDT (10/13)
Length of Visible Light 12h 09m
Length of Day
11h 15m
Waxing Gibbous, 70% of the Moon is Illuminated
Oct 13
Waxing Gibbous
Oct 18
Full
Oct 26
Last Quarter
Nov 3
New
Nov 9
First Quarter

Hourly Weather History & Observations

Time (PDT) Temp. Windchill Dew Point Humidity Pressure Visibility Wind Dir Wind Speed Gust Speed Precip Events Conditions
12:55 AM 45.0 °F 41.8 °F 33.1 °F 63% 29.90 in 10.0 mi North 5.8 mph - N/A   Mostly Cloudy
1:55 AM 44.1 °F 39.5 °F 33.1 °F 65% 29.90 in 10.0 mi North 8.1 mph - N/A   Scattered Clouds
2:55 AM 45.0 °F - 33.1 °F 63% 29.90 in 10.0 mi Calm Calm - N/A   Mostly Cloudy
3:55 AM 44.1 °F - 33.1 °F 65% 29.91 in 10.0 mi Calm Calm - N/A   Mostly Cloudy
4:41 AM 44.6 °F - 33.8 °F 66% 30.00 in 10.0 mi Calm Calm - N/A   Mostly Cloudy
4:55 AM 45.0 °F 41.8 °F 35.1 °F 68% 29.92 in 10.0 mi North 5.8 mph - N/A   Overcast
5:55 AM 44.1 °F 40.1 °F 34.0 °F 68% 29.95 in 10.0 mi North 6.9 mph - N/A   Overcast
6:55 AM 44.1 °F 38.6 °F 35.1 °F 71% 29.97 in 10.0 mi North 10.4 mph - N/A   Overcast
7:55 AM 43.0 °F 38.2 °F 37.0 °F 80% 30.01 in 10.0 mi North 8.1 mph - 0.00 in Rain Light Rain
8:55 AM 45.0 °F 40.1 °F 36.0 °F 71% 30.03 in 10.0 mi North 9.2 mph - 0.00 in Rain Light Rain
9:55 AM 45.0 °F 41.2 °F 35.1 °F 68% 30.05 in 10.0 mi North 6.9 mph - 0.00 in   Overcast
10:55 AM 46.9 °F - 35.1 °F 63% 30.08 in 10.0 mi Calm Calm - 0.00 in   Overcast
11:43 AM 48.2 °F - 35.6 °F 62% 30.12 in 10.0 mi North 4.6 mph - N/A   Mostly Cloudy
11:55 AM 51.1 °F - 35.1 °F 54% 30.06 in 10.0 mi North 5.8 mph - N/A   Mostly Cloudy
12:55 PM 51.1 °F - 33.1 °F 50% 30.07 in 10.0 mi Variable 4.6 mph - N/A   Mostly Cloudy
1:55 PM 53.1 °F - 30.9 °F 43% 30.06 in 10.0 mi NW 5.8 mph - N/A   Mostly Cloudy
2:55 PM 54.0 °F - 30.0 °F 40% 30.06 in 10.0 mi NE 6.9 mph - N/A   Mostly Cloudy
3:55 PM 54.0 °F - 32.0 °F 43% 30.08 in 10.0 mi NE 10.4 mph - N/A   Overcast
4:55 PM 53.1 °F - 32.0 °F 45% 30.09 in 10.0 mi NE 11.5 mph - N/A   Scattered Clouds
5:55 PM 52.0 °F - 30.0 °F 43% 30.11 in 10.0 mi NE 11.5 mph - N/A   Scattered Clouds
6:55 PM 50.0 °F - 28.9 °F 44% 30.13 in 10.0 mi NE 10.4 mph - N/A   Scattered Clouds
7:55 PM 48.0 °F - 30.0 °F 50% 30.15 in 10.0 mi North 4.6 mph - N/A   Scattered Clouds
8:55 PM 46.9 °F - 30.0 °F 52% 30.17 in 10.0 mi Calm Calm - N/A   Clear
9:55 PM 43.0 °F 40.3 °F 30.0 °F 60% 30.19 in 10.0 mi South 4.6 mph - N/A   Clear
10:55 PM 42.1 °F - 30.0 °F 62% 30.19 in 10.0 mi Calm Calm - N/A   Clear
11:55 PM 41.0 °F - 28.9 °F 62% 30.20 in 10.0 mi Calm Calm - N/A   Clear